Tracking 33068 objects as of 25-Jan-2026
HD Live streaming from Space Station
objects crossing your sky now

STARLINK-30109

Track STARLINK-30109 now!
10-day predictions
STARLINK-30109 is classified as:


NORAD ID: 56298
Int'l Code: 2023-056N
Perigee: 565.0 km
Apogee: 567.4 km
Inclination: 43.0 °
Period: 95.8 minutes
Semi major axis: 6937 km
RCS: Unknown
Launch date: April 19, 2023
Source: United States (US)
Launch site: AIR FORCE EASTERN TEST RANGE (AFETR)
Your satellite tracking list
Your tracking list is empty




NASA's NSSDC Master Catalog

Two Line Element Set (TLE):
1 56298U 23056N   26024.49679340 -.00002181  00000-0 -14637-3 0  9990
2 56298  43.0008  90.5521 0001741 252.9523 107.1128 15.02549191153433
Source of the keplerian elements: AFSPC